Location: Newark
(25.0000°N, 73.5000°E)
Time: 00:53:18
(UTC+00:00)

Transit 4A - All Passes

Search period start: 31 July 2021 00:00
Search period end: 10 August 2021 00:00
Orbit: 872 x 972 km, 66.8° (Epoch: 30 July)

Date Brightness Start Highest point End Pass type
(mag) Time Alt. Az. Time Alt. Az. Time Alt. Az.
31 Jul - 04:03:08 10° N 04:08:19 31° ENE 04:13:35 10° ESE daylight
31 Jul - 05:49:30 10° NW 05:54:27 28° WSW 05:59:30 10° SSW daylight
31 Jul - 17:16:01 10° SSE 17:20:34 23° ESE 17:25:01 10° ENE visible
31 Jul - 19:01:08 10° SW 19:06:35 37° WNW 19:11:58 10° N visible
01 Aug - 04:11:58 10° N 04:17:42 50° ENE 04:23:32 10° SE daylight
01 Aug - 05:59:58 10° WNW 06:03:34 17° WSW 06:07:14 10° SW daylight
01 Aug - 17:24:15 10° S 17:29:42 37° ESE 17:35:03 10° NE visible
01 Aug - 19:11:23 10° WSW 19:16:00 23° WNW 19:20:34 10° N visible
02 Aug - 04:21:03 10° NNW 04:27:00 81° ENE 04:33:05 10° SSE daylight
02 Aug - 17:33:01 10° S 17:38:54 62° ESE 17:44:41 10° NNE visible
02 Aug - 19:22:27 10° W 19:25:31 14° WNW 19:28:35 10° NNW visible
03 Aug - 02:46:29 10° NNE 02:49:37 14° ENE 02:52:46 10° E daylight
03 Aug - 04:30:23 10° NNW 04:36:15 63° WSW 04:42:15 10° S daylight
03 Aug - 17:42:09 10° SSW 17:48:08 81° WNW 17:54:01 10° NNE visible
04 Aug - 02:54:30 10° N 02:59:07 23° ENE 03:03:49 10° ESE daylight
04 Aug - 04:40:00 10° NW 04:45:26 38° WSW 04:51:00 10° S daylight
04 Aug - 16:08:05 10° SE 16:11:34 16° ESE 16:15:02 10° ENE night (unlit)
04 Aug - 17:51:41 10° SW 17:57:26 50° WNW 18:03:07 10° N visible
05 Aug - 03:03:07 10° N 03:08:33 37° ENE 03:14:05 10° SE daylight
05 Aug - 04:50:01 10° NW 04:54:36 23° WSW 04:59:16 10° SSW daylight
05 Aug - 16:15:47 10° SSE 16:20:42 27° ESE 16:25:32 10° NE visible
05 Aug - 18:01:38 10° WSW 18:06:49 31° WNW 18:11:57 10° N visible
06 Aug - 03:12:03 10° NNW 03:17:54 59° ENE 03:23:53 10° SE daylight
06 Aug - 05:00:53 10° WNW 05:03:42 14° WSW 05:06:33 10° SW daylight
06 Aug - 16:24:13 10° S 16:29:52 44° ESE 16:35:24 10° NE visible
06 Aug - 18:12:06 10° WSW 18:16:16 19° WNW 18:20:24 10° NNW visible
07 Aug - 01:39:31 10° NE 01:40:19 10° NE 01:41:06 10° ENE daylight
07 Aug - 03:21:13 10° NNW 03:27:11 86° WSW 03:33:17 10° SSE daylight
07 Aug - 16:33:08 10° SSW 16:39:04 74° ESE 16:44:55 10° NNE visible
07 Aug - 18:23:44 10° WNW 18:25:49 12° NW 18:27:55 10° NW visible
08 Aug - 01:46:06 10° NNE 01:49:54 17° ENE 01:53:44 10° E daylight
08 Aug - 03:30:39 10° NW 03:36:24 53° WSW 03:42:19 10° S daylight
08 Aug - 15:01:14 10° ESE 15:02:38 11° ESE 15:04:00 10° E night (unlit)
08 Aug - 16:42:25 10° SSW 16:48:20 69° WNW 16:54:10 10° NNE visible
09 Aug - 01:54:24 10° N 01:59:23 27° ENE 02:04:27 10° ESE daylight
09 Aug - 03:40:23 10° NW 03:45:36 32° WSW 03:50:55 10° S daylight
09 Aug - 15:07:36 10° SSE 15:11:42 19° ESE 15:15:45 10° ENE visible
09 Aug - 16:52:04 10° SW 16:57:39 42° WNW 17:03:10 10° N visible
